Location: Mahannah Oil Field
(37.4664°N, 96.6003°W)
Time: 09:15:54
(UTC+00:00)

Courier 1B - Pass Details

Date: 26 January 2021
Orbit: 962 x 1209 km, 28.3° (Epoch: 02 March)

Event Time Altitude Azimuth Distance (km) Brightness Sun altitude
Rises 09:56:16 0° 261° (W) 3,641 - -43.2°
Reaches altitude 10° 09:59:44 10° 244° (WSW) 2,685 - -42.5°
Maximum altitude 10:04:00 19° 202° (SSW) 2,134 - -41.7°
Drops below altitude 10° 10:08:17 10° 160° (SSE) 2,705 - -40.8°
Exits shadow 10:09:21 - 154° (SSE) 2,972 10.2 -40.6°
Sets 10:11:49 0° 143° (SE) 3,678 10.8 -40.1°
